Location: Unspecified
(47.0333°N, 0.0000°E)
Time: 23:57:32
(UTC+00:00)

OTV 5 (USA 277) - Pass Details

Date: 18 June 2019
Orbit: 299 x 335 km, 54.5° (Epoch: 13 July)

Event Time Altitude Azimuth Distance (km) Brightness Sun altitude
Rises 01:50:43 0° 291° (WNW) 2,106 ? -15.3°
Reaches altitude 10° 01:53:08 10° 313° (NW) 1,265 ? -15.2°
Drops below altitude 10° 01:57:06 10° 43° (NE) 1,254 ? -14.9°
Enters shadow 02:55:06 -65° 275° (W) 11,941 ? -9.4°
Maximum altitude 03:30:06 27° 19° (NNE) 679 ? -5.3°
